Home > Weather > Manhattan > Past weeks

Flag for USA Past Weather in Manhattan, Kansas, USA — Yesterday and Last 2 Weeks

Now
60 °F

Strong thunderstorms. Fog.


Feels Like: 60 °F
Forecast: 60 / 77 °F
Wind: 8 mph from Southwest

Location: Manhattan Municipal Airport

Current Time: May 27, 2016 at 7:23:15 PM

Latest Report: May 27, 2016 at 6:52 PM


Visibility: 1 mi

Pressure: 29.69 "Hg

Humidity: 86%

Dew Point: 56 °F

Location of ManhattanLocation

Past Weather in Manhattan — Graph

°F

Manhattan Temperature Yesterday

Maximum temperature yesterday: 83 °F (at 12:52 PM)
Minimum temperature yesterday: 60 °F (at 11:03 PM)
Average temperature yesterday: 69 °F

High & Low Weather Summary for the Past Weeks

 TemperatureHumidityPressure
High84 °F (May 13, 2:52 PM)100% (May 24, 8:52 AM)30.39 "Hg (May 24, 8:52 AM)
Low41 °F (May 15, 3:52 AM)27% (May 15, 1:52 PM)29.63 "Hg (May 27, 4:52 PM)
Average62 °F70%30.02 "Hg
* Reported May 12 5:52 PM — May 27 5:52 PM, Manhattan, Weather by CustomWeather, © 2016

Note: Actual official high and low records may vary slightly from our data, if they occured in-between our weather recording intervals... More about our weather records

Advertising

Manhattan Weather History for the Previous 24 Hours

Scroll right to see more
 ConditionsComfort  
Time TempWeatherWind HumidityBarometerVisibility
5:52 PM
Fri, May 27
73 °FOvercast.6 mph76%29.65 "Hg10 mi
4:52 PM75 °FThundershowers. Passing clouds.7 mph71%29.63 "Hg10 mi
3:52 PM78 °FPartly sunny.8 mph64%29.65 "Hg10 mi
2:52 PM77 °FPassing clouds.10 mph64%29.67 "Hg10 mi
1:52 PM75 °FSunny.8 mph66%29.68 "Hg10 mi
12:52 PM72 °FSunny.7 mph66%29.70 "Hg10 mi
11:52 AM71 °FPassing clouds.8 mph63%29.72 "Hg10 mi
10:52 AM69 °FPartly sunny.5 mph70%29.72 "Hg10 mi
9:52 AM66 °FOvercast.9 mph78%29.74 "Hg10 mi
8:52 AM65 °FScattered clouds.7 mph78%29.72 "Hg10 mi
7:52 AM63 °FSunny.No wind81%29.68 "Hg10 mi
6:52 AM62 °FClear.No wind83%29.67 "Hg10 mi
5:52 AM61 °FClear.6 mph81%29.63 "Hg10 mi
4:52 AM61 °FClear.6 mph87%29.64 "Hg10 mi
3:52 AM61 °FLight rain. Overcast.12 mph90%29.68 "Hg10 mi
2:52 AM61 °FLight rain. Low clouds.5 mph93%29.78 "Hg10 mi
2:01 AM60 °FRain. Overcast.6 mph93%29.85 "Hg7 mi
12:52 AM61 °FThunderstorms. Fog.7 mph90%29.86 "Hg4 mi
11:52 PM
Thu, May 26
61 °FThunderstorms. Overcast.6 mph90%29.83 "Hg7 mi
11:03 PM60 °FStrong thunderstorms. Fog.14 mph90%29.89 "Hg1 mi
11:00 PM61 °FStrong thunderstorms. Fog.16 mph87%29.88 "Hg1 mi
9:52 PM64 °FLight rain. Mostly cloudy.18 mph87%29.73 "Hg10 mi
9:02 PM63 °FLight rain. Partly sunny.17 mph87%29.76 "Hg10 mi
7:52 PM65 °FLight rain. Mostly cloudy.14 mph91%29.75 "Hg9 mi
Weather by CustomWeather, © 2016

See weather overviewHow to use our weather pages